"Pseudo-MPEC" for OQU0195

Created 2026 Sep 5 9:35:07 UT using Find_Orb

Click here for an explanation of pseudo-MPECs

 
 Astrometry: 
     OQU0195* C2026 08 31.59957221 35 29.625+17 15 47.06   ~91AK 21.38gWNEOCPO18
     OQU0195  C2026 08 31.64622721 35 39.072+17 16 27.25   ~91AK 21.35rWNEOCPO18
     OQU0195  C2026 08 31.65108821 35 40.041+17 16 31.42   ~91AK 21.10rWNEOCPO18

Station data:
(O18) WFST, Lenghu  (N38.607601 E93.895220)  China.  Observers K. Yan, Z. Q.
   Li, J. Z. Zhu, N. Jiang, Z. Y. Liu. Measurers B. Li, H. B. Zhao, Z. J. Xu,
   G. T. Zhaori. 2.5-m f/2.48 reflector + CCD.

Orbital elements:  OQU0195
   Perihelion 2026 Jul 15.357066 +/- 37.9 TT =  8:34:10.5 (JD 2461236.857066)
Epoch 2026 Sep  1.0 TT = JDT 2461284.5   Earth MOID: 0.0019      AutoNEOCP
M  15.553899565 +/- 18              (J2000 ecliptic)
n   0.326468129 +/- 0.275           Peri.  319.309153 +/- 90
a   2.088857699 +/- 1.17            Node   321.050324 +/- 60
e   0.55547035 +/- 0.253            Incl.   10.423509 +/- 5.2
P   3.01900                H 24.49  G  0.15   U 11.9  SR
q 0.928559161 +/- 0.169    Q 3.249156237 +/- 48.8
From 3 observations 2026 Aug. 31 (74.2 min); mean residual 0".03
Residuals in arcseconds: 
260831 O18  .00   .00     260831 O18  .03+  .04-    260831 O18  .03-  .04+    

Ephemerides (geocentric):
Date (UTC) HH   RA             Dec           delta  r     elong  mag " sig PA
---- --------  ------------   ------------  ------ ------ -----  --- --------
2026 09 05 10  21 49 37.294   +17 55 07.26  .15301 1.1438 150.4 21.9  45d  85
2026 09 05 11  21 49 43.048   +17 55 16.72  .15334 1.1440 150.4 21.9  45d  85
2026 09 05 12  21 49 48.781   +17 55 26.05  .15367 1.1443 150.4 21.9  45d  85
2026 09 05 13  21 49 54.494   +17 55 35.23  .15400 1.1446 150.4 21.9  45d  85
2026 09 05 14  21 50 00.187   +17 55 44.27  .15433 1.1449 150.4 21.9  45d  85
2026 09 05 15  21 50 05.859   +17 55 53.18  .15466 1.1452 150.4 21.9  45d  85
2026 09 05 16  21 50 11.512   +17 56 01.95  .15500 1.1455 150.4 21.9  45d  85
2026 09 05 17  21 50 17.144   +17 56 10.58  .15533 1.1458 150.4 21.9  45d  85
2026 09 05 18  21 50 22.756   +17 56 19.08  .15566 1.1461 150.4 21.9  46d  85
2026 09 05 19  21 50 28.349   +17 56 27.44  .15599 1.1464 150.4 21.9  46d  85
2026 09 05 20  21 50 33.922   +17 56 35.67  .15632 1.1467 150.4 21.9  46d  85
2026 09 05 21  21 50 39.476   +17 56 43.76  .15665 1.1470 150.4 21.9  46d  85
2026 09 05 22  21 50 45.011   +17 56 51.72  .15699 1.1473 150.4 21.9  46d  85
2026 09 05 23  21 50 50.526   +17 56 59.55  .15732 1.1476 150.4 21.9  46d  85
2026 09 06 00  21 50 56.022   +17 57 07.25  .15765 1.1478 150.4 22.0  46d  81
2026 09 06 01  21 51 01.499   +17 57 14.81  .15798 1.1481 150.4 22.0  46d  81
2026 09 06 02  21 51 06.957   +17 57 22.25  .15832 1.1484 150.4 22.0  46d  81
2026 09 06 03  21 51 12.397   +17 57 29.56  .15865 1.1487 150.4 22.0  46d  81
2026 09 06 04  21 51 17.818   +17 57 36.74  .15898 1.1490 150.4 22.0  46d  81
2026 09 06 05  21 51 23.221   +17 57 43.79  .15932 1.1493 150.4 22.0  46d  81
2026 09 06 06  21 51 28.605   +17 57 50.72  .15965 1.1496 150.4 22.0  46d  81
2026 09 06 07  21 51 33.971   +17 57 57.52  .15998 1.1499 150.4 22.0  46d  81
2026 09 06 08  21 51 39.319   +17 58 04.20  .16032 1.1502 150.4 22.0  47d  81
2026 09 06 09  21 51 44.649   +17 58 10.75  .16065 1.1505 150.4 22.0  47d  81
2026 09 06 10  21 51 49.961   +17 58 17.17  .16098 1.1508 150.4 22.0  47d  81
2026 09 06 11  21 51 55.255   +17 58 23.48  .16132 1.1511 150.4 22.0  47d  81
2026 09 06 12  21 52 00.531   +17 58 29.66  .16165 1.1514 150.4 22.0  47d  81
2026 09 06 13  21 52 05.790   +17 58 35.72  .16198 1.1517 150.4 22.0  47d  81
2026 09 06 14  21 52 11.032   +17 58 41.66  .16232 1.1520 150.4 22.0  47d  81
2026 09 06 15  21 52 16.256   +17 58 47.48  .16265 1.1523 150.4 22.0  48d  81
2026 09 06 16  21 52 21.463   +17 58 53.17  .16299 1.1526 150.5 22.0  48d  81
2026 09 06 17  21 52 26.653   +17 58 58.75  .16332 1.1528 150.5 22.0  48d  81
2026 09 06 18  21 52 31.826   +17 59 04.22  .16366 1.1531 150.5 22.0  48d  81
2026 09 06 19  21 52 36.982   +17 59 09.56  .16399 1.1534 150.5 22.0  48d  81
2026 09 06 20  21 52 42.121   +17 59 14.79  .16432 1.1537 150.5 22.0  48d  81
2026 09 06 21  21 52 47.244   +17 59 19.90  .16466 1.1540 150.5 22.1  48d  81
2026 09 06 22  21 52 52.350   +17 59 24.89  .16499 1.1543 150.5 22.1  48d  81
2026 09 06 23  21 52 57.439   +17 59 29.77  .16533 1.1546 150.5 22.1  48d  81
2026 09 07 00  21 53 02.512   +17 59 34.54  .16566 1.1549 150.5 22.1  49d  81
2026 09 07 01  21 53 07.569   +17 59 39.19  .16600 1.1552 150.5 22.1  49d  81
2026 09 07 02  21 53 12.610   +17 59 43.73  .16634 1.1555 150.5 22.1  49d  81
2026 09 07 03  21 53 17.634   +17 59 48.15  .16667 1.1558 150.5 22.1  49d  81
2026 09 07 04  21 53 22.643   +17 59 52.47  .16701 1.1561 150.5 22.1  49d  81
2026 09 07 05  21 53 27.636   +17 59 56.67  .16734 1.1564 150.5 22.1  49d  81
2026 09 07 06  21 53 32.613   +18 00 00.76  .16768 1.1567 150.5 22.1  49d  81
2026 09 07 07  21 53 37.575   +18 00 04.74  .16801 1.1570 150.5 22.1  49d  81
2026 09 07 08  21 53 42.520   +18 00 08.62  .16835 1.1573 150.5 22.1  49d  81
2026 09 07 09  21 53 47.451   +18 00 12.38  .16869 1.1576 150.5 22.1  50d  81